Showing default

ELEKTRON 1, 746

Orbit data source: Space-Track

ELEKTRON 1, 746 is a payload satellite owned by OKB-1 (CIS) that was launched on Thu, 30 Jan 1964 UTC via a VOSTOK 8K72 launch vehicle from the Tyuratam Missile And Space Complex (TTMTR). Payload-class satellites include a variety of spacecraft equipped with specific instruments for various scientific and technological missions. These include communications satellites like Starlink; space stations such as the ISS; scientific satellites like the Hubble; Earth observation satellites from companies like Planet Labs, Umbra, and HawkEye 360; GPS; miniature CubeSats for education and research; and military/defense satellites.

Loading next visibility...
Identifier
746, 1964-006A
Orbit
Active
Country
Flag of CISCIS
Related business
Manufacturer
OKB-1
Mission
Spacecraft
Bus & Motor
OBJECT D, SRM
Mass
350 kg wet, 350 kg dry
Launch date (UTC)
1964-01-30 (62 years ago)
Launch vehicle
VOSTOK 8K72
Launch site
Tyuratam Missile And Space Complex (TTMTR)
Object type
Payload
Rocket body
Debris
Shape & HBR
Unknown
Radar Cross Section
Large (>1 m²)

Expand to show TLE details & history
Last TLE update: 13 hours ago

TLE from 13 hours ago
0 ELEKTRON 1
1 00746U 64006A   26120.74187108  .00001605  00000-0  46655-3 0  9991
2 00746  60.8785 252.5778 2990039 214.7098 121.6865  9.10768968 62924
Epoch: 2026-04-30T17:48Z
TLE epoch observation values (Epoch: 2026-04-30T17:48:17.661Z)
Latitude
-0.00003°
Longitude
126.82008°
Altitude
5,320.597 km
Speed
5.197 km/s
True Right ascension
16h 50m 18s
True Declination
0° 00' 00"
Sunlit
Object was in daylight at epoch
Visualization orbit readout
Latitude
Unknown
Longitude
Unknown
Altitude
Unknown
Speed
Unknown
Apparent Right ascension
Unknown
Apparent Declination
Unknown
Sunlit
N/A
Visualization observer readout
Local Sidereal Time
14:42:40
Azimuth
Unknown
Elevation
Unknown
Doppler factor
Unknown
Orbital elements
Apogee altitude
6,202.611 km
Perigee altitude
410.954 km
Semi-major axis
9,684.919 km
Eccentricity
0.299
Inclination
60.8785°
RAAN
252.5778°
Arg. of periapsis
214.7098°
True anomaly
145.36945°
Mean anomaly
121.6865°
Eccentric anomaly
134.00827°
Mean motion
2.27719 °/min
Orbital period
158.09 mins
BSTAR
0.00046655
Loading maneuver chart data...
Computing Atmospheric mass density...

Documentation

Showing up to 5 results
|